[[{"header":{"parameterUnit":"m.s-1","parameterCategory":1,"la1":30.2991,"la2":30.254,"lo1":-89.0895,"lo2":-89.0444,"dy":0.0017,"dx":0.0017,"nx":28,"ny":28,"refTime":"2025-12-29T03:00:00:Z","depth":0,"parameterNumber":2,"parameterNumberName":"U-component_of_WINDS"},"data":[0,0,0,0,0,0,0,0,0,0,0,0,0,0,0,0,0,0,0,0,0,0,0,0,0,0,0,0,0,0,0,0,0,0,0,0,0,0,0,0,0,0,0,0,0,0,0,0,0,0,0,0,0,0,0,0,0,0,2.0695,2.0696,0,2.0716,2.0716,2.0717,2.0703,2.0703,2.0702,2.0701,2.0722,2.0723,2.0724,0,0,0,0,0,0,0,0,0,0,0,0,0,2.0645,2.0646,2.0695,2.0696,2.0696,2.0716,2.0716,2.0717,2.0703,2.0702,2.0702,2.0701,2.0722,2.0723,2.0724,0,0,0,0,0,0,0,0,0,0,0,0,0,2.0666,2.0646,2.0695,2.0692,2.0692,2.0716,2.0716,2.0717,2.0703,2.0702,2.0702,2.0701,2.0721,2.0723,2.0724,2.0754,0,0,2.073,2.073,0,0,0,0,0,0,0,0,2.0665,2.0668,2.0692,2.0692,2.0692,2.0706,2.0706,2.0729,2.0704,2.0699,2.0701,2.07,2.0717,2.0719,2.0725,2.0755,2.0756,2.073,2.0731,2.0732,2.0732,0,0,0,0,0,0,0,2.0663,2.0667,2.0704,2.0692,2.0692,2.0689,2.0691,2.071,2.0713,2.0699,2.0698,2.0701,2.0717,2.0724,2.0726,2.0756,2.073,2.0731,2.0732,2.0733,2.0812,2.0813,0,0,0,0,0,0,2.0662,2.0666,2.0703,2.0704,2.0676,2.0691,2.0693,2.0702,2.0713,2.0714,2.0702,2.07,2.0721,2.0724,2.0726,2.0762,2.0732,2.0733,2.0734,2.0811,2.0812,2.0813,0,0,0,0,0,0,2.0661,2.0666,2.0702,2.0685,2.0689,2.0693,2.0703,2.0703,2.071,2.0715,2.0715,2.0708,2.0721,2.0724,2.0747,2.0763,2.0734,2.0735,2.081,2.0811,2.0813,2.0833,0,0,0,0,0,0,2.066,2.0665,2.0676,2.0685,2.069,2.0723,2.0704,2.0704,2.0713,2.0711,2.0721,2.0721,2.072,2.0745,2.0749,2.0764,2.0737,2.0808,2.081,2.0812,2.0831,2.0835,2.0839,0,0,0,0,0,2.0658,2.0681,2.0677,2.0681,2.0704,2.0723,2.0726,2.0725,2.0714,2.0725,2.0729,2.0721,2.076,2.0747,2.0752,2.0768,2.0807,2.081,2.0812,2.0829,2.0834,2.0839,0,0,0,0,0,0,2.0672,2.0682,2.0677,2.0704,2.0713,2.0721,2.0735,2.073,2.0742,2.074,2.0737,2.074,2.0764,2.0769,2.0754,2.0798,2.0782,2.0786,2.0794,2.0799,2.0802,2.0801,2.0738,0,0,0,0,0,2.0679,2.0694,2.0701,2.0724,2.0729,2.0731,2.074,2.0738,2.0747,2.0751,2.0756,2.0766,2.078,2.079,2.0803,2.0832,2.0834,2.0846,2.0849,2.0852,2.0855,2.0872,2.0877,2.0821,2.0821,2.0821,0,0,2.0692,2.0699,2.0708,2.0727,2.0734,2.075,2.0734,2.0752,2.0764,2.0753,2.0776,2.0781,2.0791,2.0818,2.0829,2.0822,2.0872,2.0856,2.0858,2.0859,2.0875,2.088,2.0885,2.0823,2.0823,2.0822,0,0,2.0724,2.073,2.075,2.0758,2.0769,2.0771,2.0776,2.0786,2.0788,2.0811,2.0804,2.0819,2.0844,2.0852,2.0859,2.0897,2.089,2.0901,2.0921,2.0937,2.0942,2.0946,2.0959,2.0964,2.0904,2.0904,2.0904,0,2.0738,2.0762,2.0761,2.0779,2.0788,2.0781,2.0801,2.0809,2.0824,2.083,2.0822,2.0854,2.086,2.0889,2.0899,2.0905,2.0911,2.09,2.0941,2.0945,2.0949,2.0962,2.0967,2.0906,2.0905,2.0905,2.0905,0,2.078,2.0797,2.0812,2.0827,2.0838,2.0857,2.0859,2.087,2.0868,2.0871,2.0895,2.0903,2.0919,2.0926,2.0923,2.0955,2.095,2.0941,2.0926,2.0955,2.0968,2.0973,2.0907,2.0907,2.0907,2.0906,0,0,2.082,2.0836,2.0841,2.0849,2.0862,2.0875,2.0895,2.0911,2.092,2.0931,2.0948,2.0971,2.0963,2.0972,2.0971,2.0985,2.1015,2.0975,2.0975,2.0982,2.1051,2.1058,2.1063,2.1012,2.1013,2.1013,2.1051,0,2.0852,2.0887,2.0887,2.0919,2.0935,2.0929,2.0947,2.0957,2.0961,2.0975,2.0979,2.0996,2.0984,2.099,2.1004,2.1009,2.1029,2.1006,2.1027,2.1028,2.1024,2.107,2.1076,2.1111,2.1055,2.1056,2.1057,0,2.0895,2.0908,2.0942,2.0954,2.0961,2.0976,2.0992,2.1006,2.1017,2.1019,2.103,2.1027,2.1048,2.1032,2.1061,2.1046,2.1055,2.1059,2.106,2.1062,2.1044,2.1072,2.1122,2.1127,2.1064,2.1064,2.1063,0,2.0921,2.0948,2.0971,2.0978,2.0992,2.1004,2.101,2.1021,2.1031,2.1045,2.1052,2.1068,2.1077,2.1089,2.1091,2.108,2.1121,2.1105,2.1123,2.1123,2.1131,2.1131,2.1182,2.1138,2.1137,2.1137,2.1137,0,2.0957,2.0978,2.0983,2.0998,2.1022,2.1023,2.1046,2.1052,2.1062,2.1078,2.1074,2.1089,2.1091,2.1107,2.1109,2.1133,2.1137,2.1139,2.1139,2.1139,2.1139,2.1145,2.1142,2.1139,2.1138,2.1138,2.1138,0,2.099,2.0994,2.102,2.1032,2.1036,2.1053,2.1063,2.1078,2.1082,2.1103,2.1107,2.1114,2.1133,2.1136,2.1158,2.116,2.1189,2.1186,2.1185,2.1184,2.1202,2.1201,2.1259,2.1267,2.1217,2.1218,2.1218,0,2.1012,2.1028,2.1043,2.1054,2.1061,2.1078,2.1089,2.1091,2.1103,2.1119,2.1131,2.115,2.1165,2.1195,2.1202,2.1219,2.1217,2.1237,2.1219,2.122,2.1218,2.1217,2.1219,2.124,2.124,2.124,2.1241,0,2.1052,2.1054,2.107,2.1087,2.11,2.1114,2.1126,2.1135,2.114,2.1153,2.1172,2.1184,2.1207,2.1226,2.1243,2.125,2.1247,2.1247,2.1252,2.1251,2.125,2.1251,2.1193,2.1245,2.1244,2.1244,2.1244,2.1244,2.1081,2.1095,2.1108,2.1126,2.1137,2.1149,2.1163,2.117,2.1187,2.1206,2.1206,2.1228,2.1241,2.1264,2.1273,2.129,2.1284,2.1291,2.1293,2.1295,2.1296,2.1248,2.1293,2.1293,2.1293,2.1293,2.1293,0,2.1121,2.1129,2.1146,2.1165,2.1179,2.1175,2.119,2.1202,2.1221,2.1234,2.1249,2.1272,2.1291,2.13,2.1319,2.1331,2.1329,2.1335,2.1334,2.1336,2.1301,2.1294,2.1336,2.1336,2.1336,2.1336,2.1336,2.1336,2.1143,2.1168,2.1172,2.1202,2.121,2.1231,2.124,2.1252,2.1262,2.1288,2.1304,2.131,2.1322,2.1342,2.1359,2.1361,2.1368,2.1375,2.1377,2.1343,2.1339,2.1334,2.1328,2.1377,2.1377,2.1411,2.1411,2.1411]},{"header":{"parameterUnit":"m.s-1","parameterCategory":1,"la1":30.2991,"la2":30.254,"lo1":-89.0895,"lo2":-89.0444,"dy":0.0017,"dx":0.0017,"nx":28,"ny":28,"refTime":"2025-12-29T03:00:00:Z","depth":0,"parameterNumber":3,"parameterNumberName":"V-component_of_WINDS"},"data":[0,0,0,0,0,0,0,0,0,0,0,0,0,0,0,0,0,0,0,0,0,0,0,0,0,0,0,0,0,0,0,0,0,0,0,0,0,0,0,0,0,0,0,0,0,0,0,0,0,0,0,0,0,0,0,0,0,0,-7.1438,-7.1439,0,-7.1562,-7.1563,-7.1565,-7.1534,-7.1531,-7.1529,-7.1527,-7.1648,-7.1653,-7.1659,0,0,0,0,0,0,0,0,0,0,0,0,0,-7.117,-7.1175,-7.1438,-7.1439,-7.1441,-7.1562,-7.1563,-7.1565,-7.1534,-7.1531,-7.1528,-7.1526,-7.1646,-7.1653,-7.1659,0,0,0,0,0,0,0,0,0,0,0,0,0,-7.1289,-7.1177,-7.1437,-7.144,-7.1442,-7.1561,-7.1563,-7.1566,-7.1535,-7.1531,-7.1528,-7.1524,-7.1644,-7.1652,-7.166,-7.1783,0,0,-7.1685,-7.1689,0,0,0,0,0,0,0,0,-7.1283,-7.1299,-7.1438,-7.144,-7.1442,-7.1529,-7.1514,-7.1638,-7.1536,-7.1499,-7.1527,-7.1523,-7.1611,-7.1622,-7.1653,-7.1789,-7.1794,-7.1686,-7.1691,-7.1695,-7.1697,0,0,0,0,0,0,0,-7.1274,-7.1294,-7.1487,-7.144,-7.1443,-7.1434,-7.1447,-7.1537,-7.1574,-7.1502,-7.15,-7.1516,-7.1611,-7.1645,-7.1655,-7.1796,-7.1686,-7.1693,-7.1698,-7.1701,-7.204,-7.2044,0,0,0,0,0,0,-7.1265,-7.1287,-7.1483,-7.149,-7.1352,-7.1442,-7.1456,-7.1505,-7.1573,-7.158,-7.1519,-7.1514,-7.1633,-7.1646,-7.1659,-7.1809,-7.1694,-7.1702,-7.1707,-7.2036,-7.2041,-7.2046,0,0,0,0,0,0,-7.126,-7.1283,-7.1478,-7.1388,-7.1413,-7.145,-7.1505,-7.1509,-7.1543,-7.1585,-7.1591,-7.1547,-7.163,-7.1648,-7.1753,-7.1813,-7.1706,-7.1713,-7.2031,-7.2038,-7.2043,-7.2108,0,0,0,0,0,0,-7.1252,-7.1281,-7.1329,-7.139,-7.1417,-7.1571,-7.1508,-7.1514,-7.1557,-7.1552,-7.1613,-7.1619,-7.1629,-7.1741,-7.1762,-7.1822,-7.172,-7.2026,-7.2034,-7.2041,-7.2101,-7.2116,-7.2129,0,0,0,0,0,-7.1243,-7.1341,-7.1332,-7.1355,-7.1478,-7.1575,-7.159,-7.1601,-7.1562,-7.161,-7.1638,-7.1617,-7.1803,-7.1752,-7.1775,-7.1839,-7.2023,-7.2032,-7.2041,-7.2095,-7.2113,-7.2128,0,0,0,0,0,0,-7.1283,-7.1349,-7.1339,-7.146,-7.1513,-7.1569,-7.163,-7.1619,-7.1682,-7.1674,-7.1683,-7.1697,-7.1805,-7.1832,-7.1774,-7.1962,-7.1907,-7.1921,-7.194,-7.1958,-7.1972,-7.1963,-7.1727,0,0,0,0,0,-7.1307,-7.1381,-7.1433,-7.1535,-7.1562,-7.1592,-7.1634,-7.1638,-7.1691,-7.1713,-7.1748,-7.1799,-7.1869,-7.1915,-7.1981,-7.2105,-7.2118,-7.216,-7.2174,-7.2185,-7.2197,-7.2266,-7.2285,-7.2076,-7.2076,-7.2076,0,0,-7.1355,-7.14,-7.1446,-7.1545,-7.1585,-7.1661,-7.161,-7.1692,-7.1748,-7.1724,-7.1827,-7.1855,-7.1913,-7.2028,-7.2081,-7.2054,-7.2258,-7.2197,-7.2205,-7.2211,-7.2277,-7.2297,-7.2315,-7.2082,-7.2081,-7.208,0,0,-7.1483,-7.1524,-7.1614,-7.1657,-7.1721,-7.174,-7.1762,-7.1821,-7.184,-7.1943,-7.1928,-7.1994,-7.2114,-7.2156,-7.2193,-7.234,-7.2323,-7.2361,-7.2433,-7.25,-7.2516,-7.2531,-7.2584,-7.2603,-7.2373,-7.2373,-7.2373,0,-7.1534,-7.165,-7.1661,-7.1746,-7.179,-7.1775,-7.1866,-7.1906,-7.1987,-7.2017,-7.1987,-7.2139,-7.2177,-7.2303,-7.2339,-7.2369,-7.2394,-7.2354,-7.2513,-7.2528,-7.2542,-7.2593,-7.2612,-7.2377,-7.2377,-7.2376,-7.2376,0,-7.1711,-7.1791,-7.1856,-7.1938,-7.1989,-7.2076,-7.21,-7.215,-7.215,-7.2173,-7.2279,-7.2324,-7.2401,-7.243,-7.243,-7.2557,-7.2539,-7.2511,-7.2456,-7.2566,-7.2614,-7.2633,-7.2383,-7.2382,-7.238,-7.2379,0,0,-7.1866,-7.1955,-7.1979,-7.2017,-7.2087,-7.2149,-7.2235,-7.2312,-7.2356,-7.2412,-7.2485,-7.2588,-7.2564,-7.2606,-7.261,-7.2669,-7.2784,-7.2634,-7.2635,-7.2661,-7.2927,-7.2949,-7.2971,-7.2773,-7.2777,-7.278,-7.2923,0,-7.2,-7.2155,-7.2169,-7.2308,-7.2383,-7.237,-7.2446,-7.2496,-7.252,-7.2586,-7.261,-7.2684,-7.2646,-7.2672,-7.2729,-7.2757,-7.2837,-7.2747,-7.284,-7.2843,-7.2827,-7.2996,-7.3018,-7.3151,-7.2942,-7.2945,-7.2947,0,-7.2177,-7.2243,-7.239,-7.2452,-7.2483,-7.2551,-7.2624,-7.2687,-7.2745,-7.2758,-7.2807,-7.2804,-7.2892,-7.2834,-7.2956,-7.2894,-7.2933,-7.2953,-7.2958,-7.2968,-7.2902,-7.301,-7.3193,-7.3214,-7.2976,-7.2974,-7.2972,0,-7.2277,-7.2402,-7.2507,-7.2539,-7.2613,-7.2662,-7.2694,-7.2748,-7.2795,-7.2858,-7.2888,-7.2959,-7.2998,-7.3053,-7.3069,-7.3025,-7.3191,-7.3134,-7.3204,-7.3204,-7.3239,-7.3237,-7.3432,-7.3264,-7.3263,-7.3263,-7.3262,0,-7.2426,-7.2517,-7.2553,-7.2617,-7.2719,-7.2733,-7.2833,-7.2863,-7.2911,-7.298,-7.2973,-7.3037,-7.3055,-7.3122,-7.3135,-7.3235,-7.3252,-7.3265,-7.3267,-7.3266,-7.3264,-7.3291,-7.3283,-7.3268,-7.3267,-7.3266,-7.3265,0,-7.2555,-7.2583,-7.2696,-7.2759,-7.2776,-7.2848,-7.2901,-7.2962,-7.2986,-7.3074,-7.3095,-7.3131,-7.321,-7.3232,-7.3326,-7.3335,-7.3453,-7.3446,-7.3434,-7.3434,-7.3503,-7.3497,-7.3723,-7.3754,-7.3565,-7.3566,-7.3568,0,-7.2648,-7.2719,-7.2789,-7.2837,-7.2872,-7.2948,-7.2996,-7.3013,-7.3063,-7.3135,-7.3188,-7.3267,-7.3332,-7.3459,-7.3492,-7.3565,-7.356,-7.3635,-7.3571,-7.3568,-7.3562,-7.3559,-7.3566,-7.3647,-7.3649,-7.365,-7.3651,0,-7.2812,-7.2823,-7.2894,-7.297,-7.3028,-7.3088,-7.3146,-7.3185,-7.321,-7.3266,-7.3349,-7.34,-7.3498,-7.3576,-7.365,-7.3682,-7.3672,-7.3672,-7.3692,-7.3691,-7.3682,-7.3689,-7.3468,-7.3666,-7.3665,-7.3664,-7.3663,-7.3662,-7.2927,-7.2989,-7.305,-7.3129,-7.3175,-7.323,-7.3291,-7.3324,-7.3394,-7.3477,-7.3482,-7.3572,-7.3628,-7.3727,-7.3763,-7.3833,-7.3811,-7.384,-7.3847,-7.3854,-7.3861,-7.3671,-7.3846,-7.3846,-7.3845,-7.3845,-7.3845,0,-7.3091,-7.313,-7.3203,-7.3285,-7.3348,-7.3335,-7.3398,-7.3451,-7.3531,-7.3586,-7.365,-7.3746,-7.3823,-7.3863,-7.3939,-7.3988,-7.3985,-7.4007,-7.4004,-7.4012,-7.3876,-7.3851,-7.4008,-7.4008,-7.4008,-7.4008,-7.4008,-7.4008,-7.3183,-7.3289,-7.3307,-7.3436,-7.3473,-7.3564,-7.3601,-7.3652,-7.3696,-7.3804,-7.3869,-7.3895,-7.3944,-7.4025,-7.4094,-7.4104,-7.4132,-7.4158,-7.4165,-7.4037,-7.4021,-7.4005,-7.3982,-7.4164,-7.4164,-7.4295,-7.4296,-7.4297]}]]